TimePDT,TemperatureF,Dew PointF,Humidity,Sea Level PressureIn,VisibilityMPH,Wind Direction,Wind SpeedMPH,Gust SpeedMPH,PrecipitationIn,Events,Conditions,WindDirDegrees,DateUTC
12:51 AM,60.1,35.1,39,30.07,10.0,NE,8.1,-,N/A,,Clear,50,2012-10-25 07:51:00
1:51 AM,62.1,33.1,34,30.06,10.0,North,5.8,-,N/A,,Clear,350,2012-10-25 08:51:00
2:51 AM,61.0,33.1,35,30.06,10.0,Calm,Calm,-,N/A,,Clear,0,2012-10-25 09:51:00
3:51 AM,59.0,33.1,38,30.05,10.0,Calm,Calm,-,N/A,,Clear,0,2012-10-25 10:51:00
4:51 AM,61.0,33.1,35,30.05,10.0,North,10.4,19.6,N/A,,Clear,350,2012-10-25 11:51:00
5:51 AM,61.0,35.1,38,30.06,10.0,North,13.8,-,N/A,,Clear,350,2012-10-25 12:51:00
6:51 AM,61.0,34.0,36,30.06,10.0,NNW,9.2,-,N/A,,Clear,340,2012-10-25 13:51:00
7:51 AM,61.0,34.0,36,30.07,10.0,North,8.1,17.3,N/A,,Clear,350,2012-10-25 14:51:00
8:51 AM,64.0,35.1,34,30.08,10.0,NNW,10.4,-,N/A,,Clear,340,2012-10-25 15:51:00
9:51 AM,68.0,33.1,27,30.08,10.0,North,16.1,-,N/A,,Clear,350,2012-10-25 16:51:00
10:51 AM,72.0,32.0,23,30.06,10.0,NNW,16.1,21.9,N/A,,Clear,340,2012-10-25 17:51:00
11:51 AM,75.9,34.0,22,30.04,10.0,North,10.4,-,N/A,,Clear,350,2012-10-25 18:51:00
12:51 PM,78.1,34.0,20,30.01,10.0,North,8.1,19.6,N/A,,Clear,350,2012-10-25 19:51:00
1:51 PM,80.1,36.0,20,29.97,10.0,NW,10.4,21.9,N/A,,Clear,320,2012-10-25 20:51:00
2:51 PM,80.1,36.0,20,29.95,10.0,NW,11.5,20.7,N/A,,Clear,320,2012-10-25 21:51:00
3:51 PM,80.1,37.0,21,29.94,10.0,NNW,15.0,24.2,N/A,,Clear,340,2012-10-25 22:51:00
4:51 PM,78.1,36.0,22,29.93,10.0,NNW,17.3,23.0,N/A,,Clear,330,2012-10-25 23:51:00
6:51 PM,69.1,37.9,32,29.98,10.0,North,15.0,-,N/A,,Clear,360,2012-10-26 01:51:00
7:51 PM,68.0,37.0,32,29.99,10.0,NNW,11.5,-,N/A,,Clear,340,2012-10-26 02:51:00
9:51 PM,66.0,37.0,34,29.99,10.0,NNW,17.3,-,N/A,,Clear,330,2012-10-26 04:51:00
10:51 PM,66.9,36.0,32,29.97,10.0,North,18.4,26.5,N/A,,Clear,360,2012-10-26 05:51:00
11:51 PM,66.0,35.1,32,29.96,10.0,North,21.9,29.9,N/A,,Clear,360,2012-10-26 06:51:00